AF5AA Weather Reports


Display with metric or nautical units.
time (UTC)temp
F
wind
direction
speed
MPH
gust
MPH
rain 1hr
in
rain 24hr
in
rain mn
in
humidity
%
barometer
mb
20260904034236 78 101 0.0 0.0 0.00 0.39 0.39 92 1013.2
20260904033731 78 101 0.0 0.0 0.00 0.39 0.39 92 1013.3
20260904033228 78 101 0.0 0.0 0.00 0.39 0.39 91 1013.2
20260904032724 78 101 0.0 0.0 0.00 0.39 0.39 91 1013.4
20260904032222 78 101 0.0 0.0 0.00 0.39 0.39 91 1013.4
20260904031718 78 101 0.0 0.0 0.00 0.39 0.39 90 1013.2
20260904031213 78 101 0.0 0.0 0.00 0.39 0.39 89 1013.5
20260904030709 78 101 0.0 0.0 0.00 0.39 0.39 90 1013.4
20260904030204 78 101 0.0 0.0 0.00 0.39 0.39 90 1013.2
20260904025700 78 101 0.0 0.0 0.00 0.39 0.39 90 1013.2
20260904025155 79 101 0.0 0.0 0.00 0.39 0.39 90 1013.2
20260904024650 79 101 0.0 0.0 0.00 0.39 0.39 88 1013.0
20260904024146 79 101 0.0 0.0 0.05 0.39 0.39 88 1013.0
20260904023642 79 101 0.0 0.0 0.05 0.39 0.39 86 1013.0
20260904023138 80 101 0.0 0.0 0.00 0.38 0.38 86 1012.8
20260904022637 80 101 0.0 0.0 0.00 0.38 0.38 86 1012.9
20260904022134 80 102 0.0 0.0 0.00 0.38 0.38 86 1012.9
20260904021630 80 101 0.0 0.0 0.00 0.38 0.38 85 1012.6
20260904021125 80 102 0.0 0.0 0.00 0.38 0.38 83 1012.6
20260904020621 80 102 0.0 0.0 0.00 0.38 0.38 84 1012.4
20260904020115 80 102 0.0 0.0 0.00 0.38 0.38 84 1012.4
20260904015609 81 102 0.0 0.0 0.00 0.38 0.38 86 1012.4
20260904015108 81 102 0.0 0.0 0.00 0.38 0.38 83 1012.3
20260904014602 81 102 0.0 0.0 0.00 0.38 0.38 84 1012.4
20260904014057 81 102 0.0 0.0 0.00 0.38 0.38 82 1012.2
20260904013554 81 102 0.0 0.0 0.00 0.38 0.38 80 1011.9
20260904013051 81 102 0.0 0.0 0.00 0.38 0.38 81 1012.0
20260904012550 81 102 0.0 0.0 0.00 0.38 0.38 81 1012.0
20260904012044 81 102 0.0 0.0 0.00 0.38 0.38 80 1012.1
20260904011543 82 102 0.0 0.0 0.00 0.38 0.38 84 1011.8
20260904011039 82 102 0.0 0.0 0.00 0.38 0.38 80 1011.9
20260904010535 82 102 0.0 0.0 0.00 0.38 0.38 80 1011.7
20260904010031 83 102 0.0 0.0 0.00 0.38 0.38 78 1011.7
20260904005526 83 102 0.0 0.0 0.07 0.38 0.38 78 1011.7
20260904005021 84 102 0.0 0.0 0.07 0.38 0.38 76 1011.4
20260904004517 84 102 0.0 0.0 0.00 0.37 0.37 75 1011.6
20260904004017 84 102 0.0 0.0 0.00 0.37 0.37 75 1011.7
20260904003513 85 102 0.0 0.0 0.00 0.37 0.37 74 1011.6
20260904003008 85 102 0.0 0.0 0.00 0.37 0.37 73 1011.5
20260904002505 85 102 0.0 0.0 0.00 0.37 0.37 73 1011.5
20260904002003 86 102 0.0 0.0 0.00 0.37 0.37 72 1011.6
20260904001459 86 104 0.0 0.0 0.00 0.37 0.37 71 1011.6
20260904000953 86 104 0.0 0.0 0.00 0.37 0.37 73 1011.4
20260904000455 87 103 0.0 0.0 0.00 0.37 0.37 68 1011.3
20260903235948 87 106 0.0 0.0 0.00 0.37 0.37 69 1011.3
20260903235444 87 103 0.0 0.0 0.00 0.37 0.37 67 1011.3
20260903234938 87 98 0.0 0.0 0.00 0.37 0.37 68 1011.2
20260903234433 87 98 0.0 0.0 0.00 0.37 0.37 68 1011.4
20260903233930 88 97 0.0 0.0 0.00 0.37 0.37 67 1011.4
20260903233425 87 129 1.0 1.0 0.00 0.37 0.37 67 1011.4
20260903232920 87 100 0.0 0.0 0.00 0.37 0.37 70 1011.4
20260903232415 87 100 0.0 0.0 0.00 0.37 0.37 69 1011.4
20260903231915 88 110 0.0 0.0 0.05 0.37 0.37 69 1011.5
20260903231410 89 124 1.0 1.0 0.05 0.37 0.37 64 1011.2
20260903230905 89 107 0.0 0.0 0.00 0.36 0.36 63 1011.4
20260903230400 89 111 0.0 0.0 0.00 0.36 0.36 64 1011.3
20260903225856 89 100 0.0 0.0 0.00 0.36 0.36 65 1011.2
20260903225352 88 111 1.0 1.0 0.00 0.36 0.36 64 1011.4
20260903224848 88 102 0.0 0.0 0.00 0.36 0.36 68 1011.1
20260903224344 89 101 0.0 0.0 0.00 0.36 0.36 68 1011.4
20260903223839 90 106 0.0 0.0 0.00 0.36 0.36 61 1011.7
20260903223338 90 123 0.0 0.0 0.00 0.36 0.36 62 1011.6
20260903222833 90 99 0.0 0.0 0.00 0.36 0.36 64 1011.6
20260903222333 90 128 1.0 1.0 0.00 0.36 0.36 62 1011.7
20260903221827 90 98 0.0 0.0 0.00 0.36 0.36 61 1011.6
20260903221326 90 115 0.0 1.0 0.00 0.36 0.36 63 1011.7
20260903220824 89 120 1.0 1.0 0.00 0.36 0.36 62 1011.7
20260903220318 90 106 0.0 0.0 0.00 0.36 0.36 62 1011.6
20260903215811 90 119 0.0 0.0 0.00 0.36 0.36 59 1011.9
20260903215308 90 140 1.0 1.0 0.07 0.36 0.36 59 1012.0
20260903214806 91 99 0.0 0.0 0.07 0.36 0.36 59 1012.1
20260903214302 91 182 2.0 2.0 0.00 0.35 0.35 59 1012.1
20260903213756 90 127 1.0 1.0 0.00 0.35 0.35 59 1012.1
20260903213252 91 117 1.0 1.0 0.00 0.35 0.35 60 1012.0
20260903212748 90 94 0.0 0.0 0.00 0.35 0.35 60 1012.0
20260903212244 90 94 0.0 0.0 0.00 0.35 0.35 61 1011.9
20260903211743 89 94 0.0 0.0 0.00 0.35 0.35 65 1011.9
20260903211240 89 58 1.0 1.0 0.00 0.35 0.35 65 1012.1
20260903210736 90 86 0.0 0.0 0.00 0.35 0.35 64 1012.2
20260903210230 91 100 0.0 0.0 0.00 0.35 0.35 61 1011.9
20260903205725 90 130 1.0 1.0 0.00 0.35 0.35 64 1012.2
20260903205224 90 93 0.0 0.0 0.00 0.35 0.35 64 1012.4
20260903204720 91 118 0.0 1.0 0.00 0.35 0.35 61 1012.2
20260903204216 91 103 0.0 0.0 0.05 0.35 0.35 65 1012.4
20260903203711 91 127 0.0 1.0 0.00 0.34 0.34 60 1012.3
20260903203206 91 144 0.0 0.0 0.00 0.34 0.34 60 1012.3
20260903202700 90 143 0.0 1.0 0.00 0.34 0.34 62 1012.5
20260903202156 89 100 0.0 0.0 0.00 0.34 0.34 63 1012.5
20260903201655 90 103 0.0 0.0 0.00 0.34 0.34 63 1012.6
20260903201150 90 129 1.0 2.0 0.00 0.34 0.34 65 1013.1
20260903200644 89 102 0.0 0.0 0.00 0.34 0.34 64 1013.0
20260903200140 90 127 0.0 0.0 0.00 0.34 0.34 62 1013.1
20260903195636 89 147 0.0 0.0 0.00 0.34 0.34 63 1012.9
20260903195132 88 119 1.0 1.0 0.00 0.34 0.34 66 1013.1
20260903194627 88 23 2.0 2.0 0.07 0.34 0.34 67 1013.1
20260903194127 89 105 0.0 0.0 0.07 0.34 0.34 66 1013.3
20260903193622 89 97 0.0 0.0 0.00 0.33 0.33 65 1013.4
20260903193118 88 95 0.0 1.0 0.00 0.33 0.33 67 1013.3
20260903192615 88 110 1.0 1.0 0.00 0.33 0.33 70 1013.4
20260903192114 88 107 0.0 0.0 0.00 0.33 0.33 66 1013.3
20260903191611 88 121 1.0 1.0 0.00 0.33 0.33 68 1013.4
20260903191105 88 111 1.0 1.0 0.00 0.33 0.33 69 1013.4
20260903190604 88 121 0.0 1.0 0.00 0.33 0.33 68 1013.6
20260903190059 88 111 0.0 1.0 0.00 0.33 0.33 67 1013.8
20260903185555 88 108 0.0 1.0 0.00 0.33 0.33 66 1013.7
20260903185050 87 127 0.0 1.0 0.00 0.33 0.33 69 1013.6
20260903184546 87 214 1.0 1.0 0.07 0.33 0.33 68 1013.9
20260903184041 87 133 0.0 0.0 0.07 0.33 0.33 69 1014.0
20260903183540 87 86 0.0 1.0 0.00 0.32 0.32 69 1014.1
20260903183035 87 127 0.0 0.0 0.00 0.32 0.32 71 1013.9
20260903182534 87 113 0.0 1.0 0.00 0.32 0.32 70 1014.4
20260903182031 88 142 0.0 1.0 0.00 0.32 0.32 69 1014.2
20260903181529 89 137 0.0 1.0 0.00 0.32 0.32 65 1014.4
20260903181029 88 112 0.0 0.0 0.00 0.32 0.32 70 1014.4
20260903180524 88 111 0.0 0.0 0.00 0.32 0.32 68 1014.5
20260903180024 87 117 0.0 0.0 0.00 0.32 0.32 71 1014.7
20260903175522 87 118 0.0 0.0 0.00 0.32 0.32 69 1014.6
20260903175022 87 162 1.0 2.0 0.05 0.32 0.32 69 1014.9
20260903174517 87 105 2.0 3.0 0.05 0.32 0.32 71 1015.1
20260903174012 86 109 0.0 0.0 0.00 0.31 0.31 72 1015.2
20260903173507 86 124 0.0 1.0 0.00 0.31 0.31 72 1015.1
20260903173003 86 105 0.0 0.0 0.00 0.31 0.31 74 1015.1
20260903172457 87 111 1.0 1.0 0.00 0.31 0.31 71 1015.2
20260903171953 86 115 0.0 1.0 0.00 0.31 0.31 76 1015.4
20260903171448 84 101 0.0 0.0 0.00 0.31 0.31 75 1015.2
20260903170943 84 107 0.0 1.0 0.00 0.31 0.31 76 1015.0
20260903170437 85 155 0.0 1.0 0.07 0.31 0.31 75 1015.3
20260903165936 86 106 0.0 0.0 0.07 0.31 0.31 74 1015.4
20260903165430 85 124 1.0 1.0 0.00 0.30 0.30 72 1015.2
20260903164925 85 219 1.0 2.0 0.00 0.30 0.30 73 1015.3
20260903164420 85 140 0.0 1.0 0.00 0.30 0.30 74 1015.2
20260903163920 84 116 0.0 0.0 0.00 0.30 0.30 74 1015.2
20260903163416 84 126 0.0 0.0 0.00 0.30 0.30 73 1015.1
20260903162912 84 79 1.0 2.0 0.00 0.30 0.30 77 1015.1
20260903162408 84 117 0.0 1.0 0.00 0.30 0.30 77 1015.0
20260903161903 84 121 1.0 1.0 0.00 0.30 0.30 76 1015.1
20260903161358 83 127 0.0 0.0 0.05 0.30 0.30 78 1015.1
20260903160855 83 117 1.0 1.0 0.05 0.30 0.30 78 1015.3
20260903160353 83 107 0.0 1.0 0.00 0.29 0.29 79 1015.1
20260903155852 83 145 1.0 1.0 0.00 0.29 0.29 80 1015.3
20260903155347 82 187 0.0 1.0 0.00 0.29 0.29 79 1014.9
20260903154843 82 114 0.0 1.0 0.00 0.29 0.29 80 1015.1
20260903154339 81 123 0.0 1.0 0.00 0.29 0.29 83 1015.2
20260903153833 81 117 0.0 0.0 0.00 0.29 0.29 83 1015.2
20260903153329 81 107 0.0 1.0 0.00 0.29 0.29 84 1015.3
20260903152826 80 121 0.0 0.0 0.07 0.29 0.29 86 1015.1
20260903152321 80 102 0.0 0.0 0.07 0.29 0.29 91 1015.1
20260903151816 80 117 0.0 0.0 0.00 0.28 0.28 86 1015.2
20260903151312 80 134 0.0 1.0 0.00 0.28 0.28 87 1014.8
20260903150811 79 109 0.0 0.0 0.00 0.28 0.28 92 1015.0
20260903150306 79 111 0.0 1.0 0.00 0.28 0.28 94 1014.9
20260903145801 79 80 0.0 0.0 0.00 0.28 0.28 89 1015.1
20260903145256 79 124 0.0 0.0 0.00 0.28 0.28 90 1015.1
20260903144755 79 141 1.0 1.0 0.05 0.28 0.28 90 1014.9
20260903144251 79 133 0.0 0.0 0.05 0.28 0.28 91 1015.1
20260903143746 79 136 0.0 0.0 0.00 0.27 0.27 92 1015.1
20260903143242 78 126 0.0 1.0 0.00 0.27 0.27 93 1014.9
20260903142738 78 145 0.0 1.0 0.00 0.27 0.27 94 1015.2
20260903142234 78 118 0.0 0.0 0.00 0.27 0.27 95 1014.9
20260903141730 77 111 0.0 0.0 0.00 0.27 0.27 96 1015.1
20260903141225 77 120 0.0 0.0 0.00 0.27 0.27 98 1015.1
20260903140720 77 118 0.0 0.0 0.00 0.27 0.27 99 1015.3
20260903140215 76 115 0.0 1.0 0.07 0.27 0.27 99 1015.1
20260903135711 76 104 0.0 0.0 0.00 0.26 0.26 99 1015.2
20260903135206 76 99 0.0 0.0 0.00 0.26 0.26 99 1015.2
20260903134705 75 94 0.0 0.0 0.00 0.26 0.26 99 1015.3
20260903134201 76 111 0.0 0.0 0.00 0.26 0.26 99 1015.1
20260903133659 76 96 0.0 0.0 0.00 0.26 0.26 99 1015.2
20260903133155 75 107 0.0 0.0 0.00 0.26 0.26 99 1015.0
20260903132655 75 110 0.0 0.0 0.05 0.26 0.26 99 1015.1
20260903132154 75 125 0.0 1.0 0.05 0.26 0.26 99 1014.9
20260903131650 75 109 0.0 0.0 0.05 0.26 0.26 99 1015.2
20260903131148 75 109 0.0 0.0 0.00 0.25 0.25 99 1015.3
20260903130644 75 109 0.0 0.0 0.00 0.25 0.25 99 1015.2
20260903130138 75 109 0.0 0.0 0.00 0.25 0.25 99 1015.3
20260903125637 74 109 0.0 0.0 0.00 0.25 0.25 99 1015.4
20260903125132 74 109 0.0 0.0 0.00 0.25 0.25 99 1015.5
20260903124631 74 110 0.0 0.0 0.07 0.25 0.25 99 1015.3
20260903124125 74 95 0.0 0.0 0.07 0.25 0.25 99 1015.3
20260903123620 74 97 0.0 0.0 0.00 0.24 0.24 99 1015.0
20260903123119 74 97 0.0 0.0 0.00 0.24 0.24 99 1015.2
20260903122618 74 99 0.0 0.0 0.00 0.24 0.24 99 1015.1
20260903122113 74 99 0.0 0.0 0.00 0.24 0.24 99 1015.1
20260903121607 74 100 0.0 0.0 0.00 0.24 0.24 99 1014.7
20260903121103 74 100 0.0 0.0 0.05 0.24 0.24 99 1014.7
20260903120601 74 100 0.0 0.0 0.05 0.24 0.24 99 1014.6
20260903120056 74 105 0.0 0.0 0.00 0.23 0.23 99 1014.7
20260903115554 74 105 0.0 0.0 0.00 0.23 0.23 99 1014.5
20260903115050 74 101 0.0 0.0 0.00 0.23 0.23 99 1014.5
20260903114550 74 101 0.0 0.0 0.00 0.23 0.23 99 1014.4
20260903114046 74 107 0.0 0.0 0.07 0.23 0.23 99 1014.3
20260903113541 74 107 0.0 0.0 0.07 0.23 0.23 99 1014.2
20260903113037 74 114 0.0 0.0 0.00 0.22 0.22 99 1014.4
20260903112533 74 117 0.0 0.0 0.00 0.22 0.22 99 1014.4
20260903112028 74 117 0.0 0.0 0.00 0.22 0.22 99 1014.6
20260903111526 74 120 0.0 0.0 0.00 0.22 0.22 99 1014.2
20260903111023 74 115 0.0 0.0 0.05 0.22 0.22 99 1014.2
20260903110519 74 115 0.0 0.0 0.05 0.22 0.22 99 1014.0
20260903110019 74 124 0.0 0.0 0.00 0.21 0.21 99 1014.1
20260903105513 74 108 0.0 0.0 0.00 0.21 0.21 99 1013.9
20260903105009 74 104 0.0 0.0 0.00 0.21 0.21 99 1013.7
20260903104508 74 121 0.0 0.0 0.00 0.21 0.21 99 1013.7
20260903104005 74 115 0.0 0.0 0.07 0.21 0.21 99 1013.9
20260903103500 74 113 0.0 0.0 0.07 0.21 0.21 99 1013.9
20260903102955 74 111 0.0 0.0 0.00 0.20 0.20 99 1013.9
20260903102451 74 112 0.0 0.0 0.00 0.20 0.20 99 1013.8
20260903101949 74 122 0.0 0.0 0.00 0.20 0.20 99 1013.9
20260903101444 74 121 0.0 0.0 0.07 0.20 0.20 99 1013.9
20260903100940 74 119 0.0 0.0 0.07 0.20 0.20 99 1013.9
20260903100435 74 118 0.0 0.0 0.00 0.19 0.19 99 1014.0
20260903095932 74 158 2.0 2.0 0.00 0.19 0.19 99 1014.0
20260903095427 74 51 1.0 1.0 0.00 0.19 0.19 99 1013.9
20260903094922 74 112 0.0 0.0 0.05 0.19 0.19 99 1014.1
20260903094421 75 114 0.0 1.0 0.05 0.19 0.19 99 1013.8
20260903093917 74 120 0.0 0.0 0.00 0.18 0.18 99 1013.8
20260903093412 74 113 0.0 0.0 0.00 0.18 0.18 99 1014.0
20260903092908 74 124 0.0 0.0 0.00 0.18 0.18 99 1013.7
20260903092402 74 116 0.0 1.0 0.07 0.18 0.18 99 1013.8
20260903091901 74 107 0.0 0.0 0.07 0.18 0.18 99 1013.8
20260903091400 74 131 0.0 0.0 0.00 0.17 0.17 99 1013.8
20260903090854 74 151 0.0 0.0 0.00 0.17 0.17 99 1013.6
20260903090345 74 125 0.0 0.0 0.00 0.17 0.17 99 1013.7
20260903085842 74 133 1.0 1.0 0.05 0.17 0.17 99 1013.8
20260903085342 74 125 0.0 0.0 0.05 0.17 0.17 99 1013.8
20260903084841 74 128 0.0 0.0 0.00 0.16 0.16 99 1013.8
20260903084340 74 126 0.0 0.0 0.00 0.16 0.16 99 1013.7
20260903083836 74 124 0.0 0.0 0.07 0.16 0.16 99 1013.7
20260903083331 74 118 0.0 0.0 0.07 0.16 0.16 99 1013.8
20260903082830 74 120 0.0 0.0 0.00 0.15 0.15 99 1013.7
20260903082325 74 120 0.0 0.0 0.00 0.15 0.15 99 1013.7
20260903081820 74 117 0.0 0.0 0.05 0.15 0.15 99 1013.5
20260903081316 74 120 0.0 0.0 0.05 0.15 0.15 99 1013.8
20260903080812 74 120 0.0 0.0 0.00 0.14 0.14 99 1014.0
20260903080310 74 118 0.0 0.0 0.00 0.14 0.14 99 1013.8
20260903075809 74 124 0.0 0.0 0.07 0.14 0.14 99 1013.8
20260903075306 74 106 0.0 0.0 0.07 0.14 0.14 99 1013.9
20260903074803 74 122 0.0 0.0 0.00 0.13 0.13 99 1013.7
20260903074258 74 111 0.0 0.0 0.05 0.13 0.13 99 1014.0
20260903073754 74 128 0.0 0.0 0.05 0.13 0.13 99 1013.9
20260903073249 74 138 1.0 1.0 0.00 0.12 0.12 99 1013.9
20260903072745 74 185 1.0 2.0 0.07 0.12 0.12 99 1014.2
20260903072241 74 149 1.0 1.0 0.07 0.12 0.12 99 1014.4
20260903071737 74 113 0.0 1.0 0.00 0.11 0.11 99 1014.2
20260903071232 74 139 0.0 1.0 0.05 0.11 0.11 99 1014.3
20260903070732 74 134 1.0 1.0 0.05 0.11 0.11 99 1014.4
20260903070228 75 133 0.0 0.0 0.00 0.10 0.10 99 1014.4
20260903065723 75 115 0.0 0.0 0.07 0.10 0.10 99 1014.5
20260903065216 75 123 0.0 0.0 0.07 0.10 0.10 99 1014.3
20260903064716 75 128 0.0 0.0 0.00 0.09 0.09 99 1014.1
20260903064211 75 134 1.0 1.0 0.05 0.09 0.09 99 1014.4
20260903063707 76 136 0.0 1.0 0.05 0.09 0.09 99 1014.2
20260903063202 76 96 0.0 0.0 0.07 0.08 0.08 99 1014.2
20260903062658 76 112 0.0 0.0 0.07 0.08 0.08 99 1013.8
20260903062152 76 98 0.0 0.0 0.00 0.07 0.07 99 1013.6
20260903061648 76 80 0.0 0.0 0.07 0.07 0.07 99 1013.7
20260903061147 76 107 0.0 0.0 0.07 0.07 0.07 99 1013.9
20260903060642 76 126 0.0 0.0 0.05 0.06 0.06 99 1013.8
20260903060137 76 125 0.0 0.0 0.05 0.06 0.06 99 1014.1
20260903055635 76 98 0.0 0.0 0.07 0.05 0.05 99 1013.9
20260903055133 76 114 0.0 0.0 0.07 0.05 0.05 99 1013.8
20260903054628 76 113 0.0 0.0 0.00 0.04 0.04 99 1013.8
20260903054124 76 92 0.0 0.0 0.05 0.04 0.04 99 1013.8
20260903053620 76 110 0.0 0.0 0.07 0.03 0.03 99 1013.8
20260903053115 76 102 0.0 0.0 0.07 0.03 0.03 99 1013.7
20260903052611 76 109 0.0 0.0 0.05 0.02 0.02 99 1013.8
20260903052106 76 104 0.0 0.0 0.05 0.02 0.02 99 1013.5
20260903051601 76 93 0.0 0.0 0.07 0.01 0.01 99 1013.6
20260903051056 76 107 0.0 0.0 0.07 0.01 0.01 99 1013.5
20260903050555 76 112 0.0 0.0 0.05 0.00 0.00 99 1013.8
20260903050051 76 89 0.0 0.0 0.05 0.00 0.00 99 1014.0
20260903045550 76 105 0.0 0.0 0.07 0.49 0.49 99 1013.8
20260903045047 76 104 0.0 0.0 0.07 0.49 0.49 99 1013.8
20260903044543 76 98 0.0 0.0 0.05 0.48 0.48 99 1013.6
20260903044038 76 97 0.0 0.0 0.00 0.47 0.47 99 1013.9
20260903043534 76 86 0.0 0.0 0.07 0.47 0.47 99 1014.1
20260903043033 76 98 0.0 0.0 0.14 0.47 0.47 99 1014.0
20260903042528 75 104 0.0 0.0 0.07 0.46 0.46 99 1014.0
20260903042024 75 101 0.0 0.0 0.00 0.45 0.45 99 1014.0
20260903041521 75 99 0.0 0.0 0.00 0.45 0.45 99 1013.7
20260903041015 75 90 0.0 0.0 0.00 0.45 0.45 99 1014.0
20260903040514 75 93 0.0 0.0 0.00 0.45 0.45 99 1013.9
20260903040011 75 94 0.0 0.0 0.00 0.45 0.45 99 1013.9
20260903035506 75 101 0.0 0.0 0.00 0.45 0.45 99 1013.9
20260903035002 75 107 0.0 0.0 0.00 0.45 0.45 99 1013.9